Total_Precipitation_Accumulation
0.14 0.16 0.17 0.19 0.18 0.17 0.19 0.25 0.28 0.35 0.42 0.59 0.86 1.21 1.36 1.35 1.30 1.30 1.12 0.88 0.66 0.68 0.79 0.76 0.71 0.63 0.64 0.59 0.45 0.44 0.36 0.23 0.11 0.14 0.14 0.07 0.03 0.02 0.01 0.01 0.01 0.02 0.01
0.09 0.09 0.10 0.13 0.12 0.12 0.13 0.21 0.26 0.33 0.45 0.66 0.94 1.25 1.47 1.42 1.35 1.31 1.24 1.10 0.95 0.92 0.96 1.07 1.10 1.01 1.06 1.01 0.85 0.88 0.81 0.54 0.32 0.38 0.47 0.29 0.15 0.05 0.02 0.02 0.02 0.01 0.01
0.09 0.08 0.07 0.08 0.09 0.10 0.10 0.15 0.20 0.34 0.58 0.88 1.17 1.32 1.52 1.57 1.56 1.45 1.40 1.32 1.19 1.07 1.07 1.16 1.22 1.15 1.18 1.23 1.24 1.17 1.12 0.91 0.60 0.45 0.52 0.50 0.42 0.22 0.07 0.03 0.03 0.02 0.02
0.12 0.10 0.07 0.05 0.06 0.06 0.08 0.11 0.17 0.36 0.67 0.98 1.21 1.43 1.72 1.79 1.65 1.56 1.50 1.41 1.31 1.22 1.22 1.22 1.30 1.23 1.15 1.20 1.25 1.17 1.22 1.19 0.92 0.68 0.51 0.42 0.40 0.32 0.20 0.08 0.05 0.06 0.04
0.13 0.09 0.08 0.07 0.07 0.07 0.08 0.14 0.27 0.45 0.68 0.88 1.12 1.44 1.65 1.73 1.73 1.58 1.53 1.46 1.41 1.35 1.28 1.26 1.33 1.28 1.18 1.12 1.26 1.28 1.32 1.25 1.16 0.99 0.84 0.71 0.59 0.36 0.32 0.27 0.13 0.07 0.06
0.14 0.12 0.12 0.12 0.11 0.13 0.17 0.24 0.38 0.53 0.71 0.88 1.06 1.21 1.42 1.55 1.63 1.60 1.52 1.46 1.40 1.41 1.27 1.14 1.17 1.14 1.10 1.09 1.20 1.29 1.36 1.32 1.33 1.18 0.94 0.83 0.72 0.55 0.48 0.40 0.29 0.17 0.07
0.22 0.26 0.26 0.28 0.33 0.36 0.37 0.43 0.51 0.62 0.72 0.78 0.85 0.91 1.03 1.15 1.18 1.23 1.27 1.34 1.29 1.30 1.28 1.12 1.06 1.00 0.94 0.94 1.03 1.09 1.11 1.19 1.30 1.16 0.95 0.89 0.75 0.67 0.64 0.53 0.41 0.32 0.15
0.37 0.46 0.52 0.58 0.62 0.61 0.60 0.64 0.68 0.66 0.64 0.64 0.66 0.70 0.73 0.80 0.83 0.83 0.84 0.95 1.08 1.09 1.11 1.07 0.97 0.96 0.98 0.97 0.96 0.96 0.95 0.91 0.95 0.98 0.97 0.96 0.82 0.71 0.64 0.61 0.64 0.57 0.44
0.62 0.70 0.78 0.79 0.73 0.67 0.64 0.63 0.64 0.61 0.59 0.58 0.55 0.53 0.52 0.52 0.55 0.54 0.57 0.59 0.66 0.67 0.72 0.78 0.77 0.80 0.87 0.90 0.96 0.97 0.92 0.82 0.81 0.88 0.92 0.86 0.80 0.74 0.64 0.59 0.59 0.62 0.58
0.94 1.06 1.11 1.00 0.86 0.80 0.80 0.68 0.58 0.56 0.55 0.51 0.47 0.43 0.39 0.37 0.38 0.38 0.40 0.38 0.40 0.39 0.42 0.48 0.51 0.56 0.67 0.76 0.82 0.85 0.88 0.85 0.81 0.86 0.92 0.93 0.92 0.91 0.81 0.69 0.64 0.58 0.59
1.33 1.41 1.38 1.22 0.95 0.80 0.80 0.75 0.61 0.51 0.44 0.41 0.40 0.39 0.34 0.30 0.30 0.29 0.29 0.24 0.24 0.28 0.30 0.35 0.38 0.38 0.43 0.55 0.72 0.79 0.79 0.76 0.74 0.74 0.82 0.94 0.98 1.03 1.00 0.94 0.82 0.71 0.69
1.22 1.24 1.17 1.12 0.97 0.87 0.76 0.71 0.66 0.52 0.44 0.45 0.44 0.41 0.32 0.28 0.29 0.27 0.24 0.20 0.20 0.21 0.23 0.30 0.34 0.35 0.35 0.38 0.50 0.61 0.63 0.63 0.65 0.66 0.68 0.77 0.87 0.97 1.04 1.04 1.00 0.96 0.85
0.92 1.00 1.03 0.94 0.88 0.79 0.71 0.74 0.76 0.69 0.65 0.63 0.62 0.55 0.42 0.37 0.35 0.30 0.28 0.24 0.22 0.23 0.25 0.30 0.35 0.37 0.36 0.35 0.35 0.41 0.47 0.49 0.49 0.50 0.51 0.54 0.63 0.76 0.91 0.99 1.01 1.04 1.04
0.76 0.82 0.87 0.82 0.81 0.74 0.71 0.75 0.76 0.81 0.92 0.96 0.87 0.70 0.58 0.51 0.43 0.36 0.32 0.30 0.31 0.31 0.32 0.42 0.45 0.41 0.35 0.35 0.35 0.37 0.38 0.36 0.34 0.34 0.32 0.33 0.38 0.47 0.61 0.77 0.92 1.03 1.09
0.55 0.54 0.53 0.54 0.59 0.59 0.57 0.59 0.62 0.73 0.90 0.98 0.87 0.72 0.58 0.47 0.40 0.39 0.35 0.35 0.37 0.37 0.39 0.42 0.45 0.47 0.42 0.40 0.41 0.36 0.31 0.30 0.29 0.25 0.19 0.19 0.23 0.27 0.33 0.40 0.59 0.81 0.95
0.32 0.30 0.28 0.27 0.31 0.31 0.34 0.37 0.43 0.58 0.81 0.89 0.76 0.58 0.47 0.42 0.38 0.38 0.35 0.33 0.32 0.32 0.34 0.37 0.43 0.47 0.40 0.49 0.46 0.35 0.25 0.25 0.24 0.19 0.17 0.18 0.21 0.21 0.19 0.20 0.29 0.46 0.63
0.23 0.23 0.22 0.20 0.20 0.19 0.22 0.30 0.35 0.49 0.59 0.61 0.56 0.44 0.36 0.34 0.33 0.32 0.32 0.34 0.35 0.33 0.33 0.33 0.37 0.41 0.52 0.45 0.30 0.28 0.25 0.27 0.26 0.25 0.24 0.22 0.21 0.24 0.20 0.19 0.20 0.23 0.27
0.21 0.21 0.21 0.20 0.21 0.22 0.23 0.32 0.37 0.38 0.44 0.51 0.50 0.42 0.37 0.33 0.33 0.31 0.33 0.40 0.39 0.36 0.37 0.37 0.34 0.37 0.46 0.37 0.22 0.22 0.22 0.29 0.34 0.31 0.31 0.32 0.28 0.27 0.28 0.29 0.33 0.32 0.29
0.13 0.13 0.13 0.12 0.12 0.12 0.11 0.13 0.17 0.22 0.27 0.30 0.34 0.33 0.28 0.29 0.32 0.32 0.37 0.40 0.40 0.43 0.42 0.42 0.39 0.41 0.41 0.32 0.22 0.23 0.30 0.41 0.42 0.35 0.37 0.37 0.32 0.38 0.34 0.38 0.51 0.50 0.44
0.03 0.03 0.03 0.03 0.03 0.02 0.03 0.04 0.05 0.06 0.08 0.10 0.14 0.18 0.19 0.22 0.28 0.36 0.42 0.39 0.37 0.41 0.41 0.38 0.34 0.35 0.35 0.36 0.23 0.28 0.39 0.45 0.46 0.44 0.46 0.54 0.44 0.44 0.33 0.30 0.44 0.51 0.46
0.00 0.00 0.00 0.01 0.01 0.01 0.01 0.02 0.02 0.02 0.02 0.02 0.04 0.07 0.11 0.16 0.25 0.32 0.31 0.30 0.33 0.35 0.35 0.37 0.35 0.33 0.38 0.46 0.43 0.44 0.47 0.52 0.56 0.59 0.64 0.59 0.59 0.39 0.28 0.24 0.28 0.35 0.37
0.00 0.00 0.00 0.00 0.00 0.00 0.00 0.00 0.00 0.00 0.00 0.00 0.01 0.02 0.04 0.07 0.12 0.19 0.22 0.24 0.28 0.29 0.28 0.29 0.29 0.32 0.40 0.46 0.46 0.47 0.50 0.55 0.55 0.59 0.57 0.50 0.49 0.32 0.22 0.17 0.20 0.19 0.20
0.00 0.00 0.00 0.00 0.00 0.00 0.00 0.00 0.00 0.00 0.00 0.00 0.00 0.00 0.01 0.02 0.05 0.12 0.16 0.20 0.26 0.28 0.26 0.24 0.25 0.28 0.31 0.37 0.39 0.39 0.37 0.39 0.41 0.38 0.40 0.36 0.28 0.21 0.15 0.13 0.14 0.15 0.19
0.00 0.00 0.00 0.00 0.00 0.00 0.00 0.00 0.00 0.00 0.00 0.00 0.00 0.00 0.01 0.01 0.03 0.05 0.12 0.21 0.24 0.22 0.23 0.24 0.26 0.29 0.31 0.31 0.30 0.32 0.33 0.30 0.32 0.30 0.27 0.23 0.18 0.16 0.16 0.16 0.15 0.16 0.20
0.00 0.00 0.00 0.00 0.00 0.00 0.00 0.00 0.00 0.00 0.00 0.00 0.00 0.00 0.00 0.01 0.02 0.02 0.06 0.13 0.15 0.14 0.18 0.23 0.27 0.31 0.33 0.29 0.25 0.25 0.30 0.34 0.37 0.39 0.31 0.24 0.21 0.20 0.22 0.24 0.22 0.22 0.25
0.00 0.00 0.00 0.00 0.00 0.00 0.00 0.00 0.00 0.00 0.00 0.00 0.00 0.00 0.00 0.01 0.01 0.02 0.03 0.05 0.05 0.07 0.08 0.09 0.13 0.13 0.12 0.13 0.13 0.15 0.19 0.25 0.29 0.40 0.43 0.43 0.46 0.45 0.43 0.39 0.31 0.26 0.25